Weather History for CYHE - October, 2012

Change the Weather History Date:

Tuesday, October 2, 2012

  Actual Average (WUND) Record (WUND)
Temperature  
Mean Temperature 56 °F -  
Max Temperature 63 °F 57 °F - (-1)
Min Temperature 49 °F 42 °F - (-1)
Degree Days  
Heating Degree Days 9    
Growing Degree Days 6 (Base 50)    
Moisture  
Dew Point 40 °F    
Average Humidity 57    
Maximum Humidity 77    
Minimum Humidity 28    
Precipitation  
Precipitation 0.00 in 0.26 in - ()
Sea Level Pressure  
Sea Level Pressure 30.21 in    
Wind  
Wind Speed 8 mph ()    
Max Wind Speed 16 mph    
Max Gust Speed 28 mph    
Visibility 9.0 miles    
Events Rain    
Averages and records for this station are not official NWS values.
T = Trace of Precipitation, MM = Missing Value Source: Averaged Metar Reports

Daily Weather History Graph

Daily Weather History Graph

Search for Another Location

Airport or City:

Trip Planner

Search our weather history database for the weather conditions in past years. The results will help you decide how hot, cold, wet, or windy it might be!

Date:

Astronomy

Oct. 02, 2012 Rise Set
Actual Time 7:08 AM PDT 6:41 PM PDT
Civil Twilight 6:36 AM PDT 7:12 PM PDT
Nautical Twilight 5:59 AM PDT 7:49 PM PDT
Astronomical Twilight 5:21 AM PDT 8:27 PM PDT
Moon 7:37 PM PDT 9:58 AM PDT
Length of Visible Light 12h 36m
Length of Day
11h 33m
Waning Gibbous, 93% of the Moon is Illuminated
Oct 2
Waning Gibbous
Oct 8
Last Quarter
Oct 15
New
Oct 21
First Quarter
Oct 29
Full

Hourly Weather History & Observations

Time (PDT) Temp. Dew Point Humidity Pressure Visibility Wind Dir Wind Speed Gust Speed Precip Events Conditions
12:00 AM 60.8 °F 51.8 °F 72% 30.06 in 9.0 mi WNW 11.5 mph 27.6 mph N/A   Overcast
1:00 AM 59.0 °F 51.8 °F 77% 30.09 in 9.0 mi WNW 13.8 mph 25.3 mph N/A   Mostly Cloudy
2:00 AM 58 °F 50 °F 66% 30.10 in - West 10.4 mph - -  
2:00 AM 57.2 °F 50.0 °F 77% 30.11 in 9.0 mi WNW 11.5 mph 21.9 mph N/A   Mostly Cloudy
3:00 AM 55.4 °F 48.2 °F 77% 30.12 in 9.0 mi WNW 11.5 mph 24.2 mph N/A   Clear
4:00 AM 55.4 °F 46.4 °F 72% 30.14 in 9.0 mi WNW 16.1 mph 21.9 mph N/A   Partly Cloudy
5:00 AM 54 °F 44 °F 61% 30.15 in - West 9.2 mph - -  
5:00 AM 53.6 °F 44.6 °F 72% 30.15 in 9.0 mi West 11.5 mph 17.3 mph N/A   Scattered Clouds
6:00 AM 53.6 °F 42.8 °F 67% 30.15 in 9.0 mi WNW 11.5 mph 18.4 mph N/A   Overcast
7:00 AM 53.6 °F 42.8 °F 67% 30.14 in 9.0 mi West 11.5 mph 20.7 mph N/A   Overcast
8:00 AM 53 °F 42 °F 57% 30.16 in - West 10.4 mph - -  
8:00 AM 53.6 °F 42.8 °F 67% 30.17 in 9.0 mi WNW 10.4 mph 18.4 mph N/A   Mostly Cloudy
9:00 AM 53.6 °F 42.8 °F 67% 30.19 in 9.0 mi West 9.2 mph - N/A   Overcast
10:00 AM 53.6 °F 42.8 °F 67% 30.19 in 9.0 mi NW 5.8 mph - N/A   Overcast
11:00 AM 55.4 °F 41.0 °F 58% 30.19 in 9.0 mi WNW 5.8 mph - N/A   Overcast
12:00 PM 53.6 °F 42.8 °F 67% 30.22 in 9.0 mi WNW 3.5 mph - N/A   Overcast
12:10 PM 53.6 °F 41.0 °F 62% 30.22 in 9.0 mi WNW 6.9 mph - N/A Rain Light Rain
12:24 PM 53.6 °F 42.8 °F 67% 30.23 in 9.0 mi NW 3.5 mph - N/A   Overcast
1:00 PM 53.6 °F 41.0 °F 62% 30.23 in 9.0 mi West 4.6 mph - N/A   Overcast
2:00 PM 55 °F 41 °F 48% 30.23 in - SE 3.5 mph - -  
2:00 PM 55.4 °F 41.0 °F 58% 30.23 in 9.0 mi SSE 3.5 mph - N/A   Overcast
3:00 PM 57.2 °F 39.2 °F 51% 30.23 in 9.0 mi ESE 5.8 mph - N/A   Overcast
4:00 PM 59.0 °F 37.4 °F 45% 30.24 in 9.0 mi SSE 5.8 mph - N/A   Clear
5:00 PM 58 °F 36 °F 32% 30.22 in - SE 4.6 mph - -  
5:00 PM 59.0 °F 37.4 °F 45% 30.23 in 9.0 mi ESE 3.5 mph - N/A   Clear
6:00 PM 53.6 °F 39.2 °F 58% 30.24 in 9.0 mi Variable 3.5 mph - N/A   Clear
7:00 PM 55.4 °F 26.6 °F 33% 30.27 in 9.0 mi Variable 3.5 mph - N/A   Clear
8:00 PM 53 °F 29 °F 28% 30.31 in - NE 2.3 mph - -  
8:00 PM 53.6 °F 28.4 °F 38% 30.31 in 9.0 mi ESE 3.5 mph - N/A   Partly Cloudy
9:00 PM 55.4 °F 24.8 °F 31% 30.33 in 9.0 mi Variable 4.6 mph - N/A   Clear
10:00 PM 50.0 °F 28.4 °F 43% 30.37 in 9.0 mi SE 4.6 mph - N/A   Clear
11:00 PM 49 °F 31 °F 38% 30.40 in - NNE 2.3 mph - -  
11:00 PM 50.0 °F 32.0 °F 50% 30.40 in 9.0 mi East 3.5 mph - N/A   Clear